TimeEST,TemperatureF,Dew PointF,Humidity,Sea Level PressureIn,VisibilityMPH,Wind Direction,Wind SpeedMPH,Gust SpeedMPH,PrecipitationIn,Events,Conditions,WindDirDegrees,DateUTC
12:52 AM,57.9,44.1,60,29.95,10.0,SW,13.8,21.9,N/A,,Partly Cloudy,220,2013-11-07 05:52:00
1:52 AM,57.9,44.1,60,29.92,10.0,Variable,5.8,-,N/A,,Mostly Cloudy,0,2013-11-07 06:52:00
2:52 AM,59.0,43.0,55,29.89,10.0,SSW,10.4,18.4,N/A,,Overcast,210,2013-11-07 07:52:00
3:52 AM,59.0,43.0,55,29.87,10.0,SW,10.4,23.0,N/A,,Overcast,230,2013-11-07 08:52:00
4:52 AM,59.0,44.1,58,29.86,10.0,SW,13.8,24.2,N/A,,Overcast,230,2013-11-07 09:52:00
5:52 AM,59.0,46.0,62,29.81,10.0,West,4.6,21.9,N/A,,Overcast,260,2013-11-07 10:52:00
6:52 AM,55.0,52.0,89,29.81,5.0,Variable,5.8,-,0.00,Rain,Light Rain,0,2013-11-07 11:52:00
7:01 AM,55.4,51.8,88,29.80,8.0,Variable,5.8,-,0.00,,Overcast,0,2013-11-07 12:01:00
7:35 AM,55.4,51.8,88,29.80,1.8,West,8.1,17.3,0.03,Rain,Rain,260,2013-11-07 12:35:00
7:45 AM,55.4,53.6,94,29.79,2.0,Variable,4.6,-,0.04,Rain,Light Rain,0,2013-11-07 12:45:00
7:52 AM,55.0,52.0,89,29.80,2.5,West,4.6,-,0.05,Rain,Light Rain,280,2013-11-07 12:52:00
8:05 AM,55.4,53.6,94,29.79,3.0,Variable,4.6,-,0.02,Rain,Light Rain,0,2013-11-07 13:05:00
8:14 AM,55.4,53.6,94,29.80,2.5,NW,4.6,-,0.04,Rain,Rain,310,2013-11-07 13:14:00
8:28 AM,55.4,53.6,94,29.80,3.0,Variable,5.8,-,0.06,Rain,Light Rain,0,2013-11-07 13:28:00
8:52 AM,55.0,53.1,93,29.80,3.0,WNW,5.8,-,0.10,Rain,Light Rain,290,2013-11-07 13:52:00
9:52 AM,53.1,48.9,86,29.83,10.0,West,10.4,19.6,0.05,Rain,Light Rain,270,2013-11-07 14:52:00
10:15 AM,51.8,46.4,82,29.82,10.0,West,9.2,-,0.00,Rain,Light Rain,260,2013-11-07 15:15:00
10:52 AM,50.0,46.9,89,29.84,10.0,West,8.1,-,0.00,Rain,Light Rain,260,2013-11-07 15:52:00
11:52 AM,48.0,43.0,83,29.81,9.0,Variable,4.6,16.1,0.04,Rain,Light Rain,0,2013-11-07 16:52:00
12:52 PM,46.9,41.0,80,29.79,10.0,WNW,5.8,-,0.00,,Overcast,290,2013-11-07 17:52:00
1:52 PM,45.0,41.0,86,29.82,6.0,WSW,6.9,-,0.03,Rain,Light Rain,250,2013-11-07 18:52:00
2:34 PM,44.6,37.4,76,29.81,10.0,WNW,5.8,16.1,0.00,,Overcast,290,2013-11-07 19:34:00
2:44 PM,44.6,37.4,76,29.82,10.0,West,6.9,-,0.00,,Overcast,270,2013-11-07 19:44:00
2:52 PM,45.0,37.0,74,29.82,10.0,WNW,6.9,-,0.00,,Overcast,290,2013-11-07 19:52:00
3:21 PM,44.6,35.6,71,29.79,10.0,West,12.7,-,N/A,,Mostly Cloudy,270,2013-11-07 20:21:00
3:52 PM,45.0,35.1,68,29.80,10.0,West,20.7,26.5,N/A,,Partly Cloudy,260,2013-11-07 20:52:00
4:52 PM,43.0,33.1,68,29.82,10.0,West,15.0,25.3,N/A,,Clear,270,2013-11-07 21:52:00
5:52 PM,44.1,30.9,60,29.83,10.0,West,15.0,-,N/A,,Overcast,260,2013-11-07 22:52:00
6:52 PM,43.0,28.0,56,29.85,10.0,West,13.8,24.2,N/A,,Overcast,280,2013-11-07 23:52:00
7:52 PM,43.0,26.1,51,29.85,10.0,West,11.5,-,N/A,,Overcast,280,2013-11-08 00:52:00
8:52 PM,41.0,28.9,62,29.87,10.0,West,17.3,25.3,N/A,,Overcast,270,2013-11-08 01:52:00
9:52 PM,39.9,26.1,58,29.88,10.0,West,12.7,24.2,N/A,,Mostly Cloudy,260,2013-11-08 02:52:00
10:52 PM,39.0,24.1,55,29.87,10.0,WSW,12.7,-,N/A,,Partly Cloudy,250,2013-11-08 03:52:00
11:52 PM,37.0,23.0,57,29.88,10.0,West,8.1,-,N/A,,Scattered Clouds,270,2013-11-08 04:52:00